Weather reports worldwide

Advertisment
Bonn-Roleber, Germany (10519): temperature & dewpoint: 19.08.2019 08:00:00 - 25.08.2019 08:00:00 (CEST)Bonn-Roleber, Germany (10519): temperature 5cm & temperature -5cm: 19.08.2019 08:00:00 - 25.08.2019 08:00:00 (CEST)Bonn-Roleber, Germany (10519): temperature -20cm & temperature -100cm: 19.08.2019 08:00:00 - 25.08.2019 08:00:00 (CEST)Bonn-Roleber, Germany (10519): wind speed & gusts: 19.08.2019 08:00:00 - 25.08.2019 08:00:00 (CEST)Bonn-Roleber, Germany (10519): wind direction: 19.08.2019 08:00:00 - 25.08.2019 08:00:00 (CEST)Bonn-Roleber, Germany (10519): reduced air pressure: 19.08.2019 08:00:00 - 25.08.2019 08:00:00 (CEST)Bonn-Roleber, Germany (10519): visibility: 19.08.2019 08:00:00 - 25.08.2019 08:00:00 (CEST)Bonn-Roleber, Germany (10519): sunshine duration: 19.08.2019 08:00:00 - 25.08.2019 08:00:00 (CEST)Bonn-Roleber, Germany (10519): precipitation: 19.08.2019 08:00:00 - 25.08.2019 08:00:00 (CEST)
Date & Time tt [°C] td [°C] tt 5cm [°C] tt -5cm [°C] tt -20cm [°C] tt -100cm [°C] ff [km/h] ff [kn] fx [km/h] fx [kn] dd ppp [hPa] vv [km] sd [min] rr [mm]
25.08.2019 08:00:00 - - - - - - - - - - - - - - -
25.08.2019 07:00:00 14,2 13,0 12,2 17,8 20,9 18,4 2 1 3 2 SSW 1019,2 8 0 0,0
25.08.2019 06:00:00 14,9 13,2 12,3 18,2 21,2 18,3 3 2 6 4 S 1018,8 11 0 0,0
25.08.2019 05:00:00 15,0 13,2 12,5 18,6 21,5 18,3 3 2 5 3 ESE 1018,9 10 0 0,0
25.08.2019 04:00:00 15,3 13,2 13,1 19,1 21,8 18,3 3 1 6 3 WNW 1019,0 14 0 0,0
25.08.2019 03:00:00 16,6 13,4 13,5 19,5 22,2 18,3 4 2 7 4 E 1018,8 16 0 0,0
25.08.2019 02:00:00 17,2 13,1 13,8 20,0 22,6 18,3 3 2 9 5 SE 1019,0 22 0 0,0
25.08.2019 01:00:00 17,8 13,2 13,9 20,7 23,0 18,3 3 1 9 5 E 1019,2 24 0 0,0
25.08.2019 00:00:00 19,5 13,0 15,2 21,4 23,4 18,3 7 4 11 6 E 1019,0 30 0 0,0
24.08.2019 23:00:00 19,3 12,8 15,1 22,3 23,8 18,3 6 3 9 5 E 1019,0 31 0 0,0
24.08.2019 22:00:00 20,2 12,5 15,9 23,4 24,2 18,3 6 3 10 6 ESE 1018,9 38 0 0,0
24.08.2019 21:00:00 21,8 12,1 16,6 24,9 24,5 18,3 8 4 14 7 SE 1018,8 22 12 0,0
24.08.2019 20:00:00 25,7 10,7 23,0 26,9 24,6 18,3 11 6 20 11 SE 1018,3 53 60 0,0
24.08.2019 19:00:00 29,3 9,9 26,6 29,2 24,4 18,3 7 4 17 9 ESE 1018,1 63 60 0,0
24.08.2019 18:00:00 29,6 9,7 32,1 30,6 24,1 18,3 5 3 19 10 NE 1018,3 49 59 0,0
24.08.2019 17:00:00 29,5 9,5 32,9 31,5 23,5 18,3 7 4 19 10 NE 1018,7 37 60 0,0
24.08.2019 16:00:00 29,0 9,8 33,6 31,8 22,8 18,2 9 5 21 11 NE 1019,2 42 60 0,0
24.08.2019 15:00:00 29,9 13,0 34,4 31,3 22,0 18,2 9 5 19 10 E 1019,6 37 60 0,0
24.08.2019 14:00:00 27,5 10,5 33,1 30,6 21,1 18,2 8 5 17 9 NE 1020,2 33 60 0,0
24.08.2019 13:00:00 27,8 11,8 33,1 29,0 20,2 18,2 7 4 16 9 ENE 1020,7 37 60 0,0
24.08.2019 12:00:00 27,3 11,5 31,5 26,7 19,5 18,2 6 4 16 9 SE 1021,2 36 60 0,0
24.08.2019 11:00:00 24,7 11,1 28,0 23,7 19,0 18,2 5 3 8 5 ESE 1021,9 41 60 0,0
24.08.2019 10:00:00 21,6 11,3 25,0 20,5 18,8 18,2 5 3 10 5 ESE 1022,1 36 60 0,0
24.08.2019 09:00:00 18,9 10,7 20,8 17,3 19,0 18,2 6 3 11 6 ESE 1022,4 32 60 0,0
24.08.2019 08:00:00 14,4 10,4 12,5 15,5 19,2 18,2 6 3 10 5 ESE 1022,5 27 57 0,0
24.08.2019 07:00:00 11,4 9,0 8,7 15,5 19,6 18,2 4 2 9 5 S 1022,5 23 0 0,0
24.08.2019 06:00:00 12,1 9,0 9,4 15,9 20,0 18,2 6 3 11 6 E 1022,1 29 0 0,0
24.08.2019 05:00:00 12,6 9,1 8,7 16,4 20,4 18,2 6 3 10 5 E 1022,4 28 0 0,0
24.08.2019 04:00:00 12,9 9,3 10,2 17,0 20,8 18,1 5 3 8 5 E 1022,5 25 0 0,0
24.08.2019 03:00:00 13,9 9,7 9,9 17,6 21,2 18,1 5 3 7 4 ENE 1022,6 34 0 0,0
24.08.2019 02:00:00 14,2 9,6 10,5 18,3 21,6 18,1 3 2 7 4 ENE 1022,6 32 0 0,0
24.08.2019 01:00:00 16,8 9,9 11,2 19,2 22,1 18,1 6 3 11 6 ENE 1022,6 40 0 0,0
24.08.2019 00:00:00 16,5 10,5 12,0 20,1 22,5 18,1 7 4 9 5 E 1022,7 39 0 0,0
23.08.2019 23:00:00 17,6 10,9 14,1 21,2 23,0 18,1 3 1 8 4 ESE 1022,7 35 0 0,0
23.08.2019 22:00:00 18,0 11,4 14,5 22,4 23,4 18,1 3 1 6 3 SSW 1022,9 31 0 0,0
23.08.2019 21:00:00 19,8 12,4 16,4 24,0 23,6 18,1 3 2 7 4 SE 1022,8 24 0 0,0
23.08.2019 20:00:00 23,8 10,3 20,2 26,0 23,7 18,1 4 2 8 4 N 1022,4 46 45 0,0
23.08.2019 19:00:00 27,1 9,6 25,7 28,1 23,6 18,1 3 2 13 7 NNE 1022,3 48 60 0,0
23.08.2019 18:00:00 28,1 9,2 29,0 29,7 23,2 18,1 4 2 18 10 SE 1022,6 47 60 0,0
23.08.2019 17:00:00 28,3 9,5 31,1 30,7 22,6 18,1 6 4 18 10 E 1023,0 41 60 0,0
23.08.2019 16:00:00 28,0 8,9 32,3 30,8 21,9 18,1 10 5 21 12 SE 1023,4 38 60 0,0
23.08.2019 15:00:00 26,7 9,5 30,6 30,4 21,1 18,1 8 4 16 9 N 1023,9 41 60 0,0
23.08.2019 14:00:00 26,9 9,4 32,0 29,6 20,2 18,1 10 5 19 11 SE 1024,5 44 60 0,0
23.08.2019 13:00:00 25,1 8,7 30,9 28,0 19,4 18,1 7 4 16 8 ENE 1025,2 34 60 0,0
23.08.2019 12:00:00 23,4 11,2 28,5 25,7 18,6 18,1 5 3 11 6 E 1025,7 35 60 0,0
23.08.2019 11:00:00 21,4 11,5 24,1 22,7 18,2 18,1 3 2 9 5 ESE 1026,2 25 60 0,0
23.08.2019 10:00:00 19,4 10,3 22,1 19,6 18,0 18,1 4 2 9 5 SSE 1026,4 26 60 0,0
23.08.2019 09:00:00 17,2 10,5 18,6 16,3 18,1 18,1 4 2 10 5 S 1026,6 29 60 0,0
23.08.2019 08:00:00 13,5 11,4 11,6 14,7 18,4 18,1 5 3 9 5 S 1026,5 17 53 0,0
23.08.2019 07:00:00 10,5 9,7 8,8 14,6 18,7 18,1 3 2 4 2 SSE 1026,7 13 0 0,0
23.08.2019 06:00:00 10,8 9,8 8,8 15,0 19,1 18,1 2 1 5 3 NNE 1026,4 17 0 0,0
23.08.2019 05:00:00 11,7 10,0 9,0 15,5 19,5 18,1 2 1 6 3 SSW 1026,3 20 0 0,0
23.08.2019 04:00:00 11,8 9,8 8,6 16,1 19,8 18,1 2 1 5 3 S 1026,2 24 0 0,0
23.08.2019 03:00:00 13,4 10,5 10,4 16,7 20,3 18,1 4 2 6 4 ESE 1026,0 29 0 0,0
23.08.2019 02:00:00 14,4 10,4 10,9 17,4 20,7 18,1 5 3 10 5 SSW 1026,0 35 0 0,0
23.08.2019 01:00:00 13,5 10,3 10,5 18,2 21,1 18,1 4 2 5 3 S 1026,2 29 0 0,0
23.08.2019 00:00:00 14,5 10,4 11,5 19,1 21,6 18,1 3 1 6 3 W 1025,8 40 0 0,0
22.08.2019 23:00:00 17,6 10,2 13,7 20,1 22,0 18,1 4 2 8 4 WNW 1025,5 42 0 0,0
22.08.2019 22:00:00 18,0 9,9 13,9 21,3 22,4 18,1 5 3 6 3 ESE 1025,3 50 0 0,0
22.08.2019 21:00:00 20,0 9,8 15,2 23,0 22,7 18,1 5 3 9 5 ENE 1024,7 26 12 0,0
22.08.2019 20:00:00 23,7 8,9 20,6 25,0 22,8 18,1 6 3 14 7 NNE 1024,1 57 60 0,0
22.08.2019 19:00:00 25,3 8,4 26,4 27,2 22,6 18,1 6 3 11 6 NE 1023,8 65 60 0,0
22.08.2019 18:00:00 25,8 8,5 28,2 28,7 22,2 18,1 5 3 12 7 N 1024,0 70 60 0,0
22.08.2019 17:00:00 25,9 8,3 29,0 29,8 21,6 18,1 6 4 16 9 NE 1024,2 56 60 0,0
22.08.2019 16:00:00 26,1 9,9 30,2 30,1 20,8 18,1 8 5 18 10 SSE 1024,5 49 60 0,0
22.08.2019 15:00:00 26,1 8,8 30,5 29,6 19,9 18,1 7 4 21 11 S 1025,0 48 60 0,0
22.08.2019 14:00:00 24,6 7,2 28,7 28,8 19,0 18,1 8 4 23 13 S 1025,3 36 60 0,0
22.08.2019 13:00:00 25,0 9,4 30,0 27,1 18,1 18,1 16 9 27 14 SSE 1025,6 28 60 0,0
22.08.2019 12:00:00 24,0 9,5 27,8 24,4 17,3 18,1 12 6 22 12 S 1026,1 42 60 0,0
22.08.2019 11:00:00 22,6 10,0 25,6 21,5 16,8 18,1 5 3 10 5 S 1026,5 36 60 0,0
22.08.2019 10:00:00 19,7 9,9 21,9 18,2 16,5 18,1 4 2 9 5 S 1026,8 48 60 0,0
22.08.2019 09:00:00 16,5 9,8 18,2 14,7 16,6 18,1 4 2 8 5 ESE 1026,6 24 60 0,0
22.08.2019 08:00:00 12,1 9,2 9,8 12,9 16,9 18,1 4 2 9 5 ESE 1026,8 24 57 0,0
22.08.2019 07:00:00 8,8 7,6 7,0 12,8 17,2 18,1 6 3 8 4 ESE 1026,8 22 0 0,0
22.08.2019 06:00:00 9,3 7,7 6,7 13,2 17,5 18,1 5 3 7 4 E 1026,8 28 0 0,0
22.08.2019 05:00:00 9,7 8,0 7,8 13,7 17,9 18,1 6 3 8 4 E 1026,5 29 0 0,0
22.08.2019 04:00:00 10,9 8,4 8,5 14,1 18,2 18,1 4 2 8 4 E 1026,6 30 0 0,0
22.08.2019 03:00:00 11,6 8,6 8,2 14,7 18,6 18,1 4 2 7 4 E 1026,7 36 0 0,0
22.08.2019 02:00:00 12,5 8,6 8,9 15,3 19,0 18,1 4 2 8 5 E 1026,9 40 0 0,0
22.08.2019 01:00:00 12,7 8,5 8,9 16,0 19,5 18,1 5 3 11 6 E 1027,1 42 0 0,0
22.08.2019 00:00:00 13,7 8,1 9,7 16,7 19,9 18,1 8 5 11 6 ESE 1027,0 50 0 0,0
21.08.2019 23:00:00 13,8 8,9 10,2 17,6 20,3 18,1 8 4 9 5 ESE 1027,1 47 0 0,0
21.08.2019 22:00:00 14,6 8,9 10,8 18,8 20,7 18,1 5 3 7 4 ESE 1026,9 48 0 0,0
21.08.2019 21:00:00 17,1 8,1 12,9 20,4 21,0 18,1 5 3 8 5 ENE 1026,7 38 9 0,0
21.08.2019 20:00:00 20,2 7,7 17,7 22,2 21,1 18,2 6 3 13 7 NE 1026,3 62 33 0,0
21.08.2019 19:00:00 21,3 7,9 21,2 23,9 21,1 18,2 9 5 16 9 NE 1026,4 52 18 0,0
21.08.2019 18:00:00 22,0 7,3 23,2 25,5 20,8 18,2 8 4 18 10 NE 1026,5 54 57 0,0
21.08.2019 17:00:00 22,5 7,4 24,7 26,8 20,3 18,2 8 4 15 8 NNE 1026,7 53 58 0,0
21.08.2019 16:00:00 23,1 6,3 26,5 27,8 19,6 18,2 5 3 16 9 E 1026,9 40 60 0,0
21.08.2019 15:00:00 21,2 6,6 23,6 27,1 18,9 18,2 5 3 16 9 N 1027,4 48 47 0,0
21.08.2019 14:00:00 21,5 7,2 26,2 26,2 18,1 18,2 6 3 14 7 S 1027,8 48 52 0,0
21.08.2019 13:00:00 21,8 9,2 26,3 25,2 17,3 18,2 7 4 14 8 E 1028,3 29 60 0,0
21.08.2019 12:00:00 19,4 9,0 23,7 22,7 16,6 18,2 4 2 10 5 E 1028,9 34 60 0,0
21.08.2019 11:00:00 18,9 9,9 21,9 20,2 16,1 18,2 4 2 8 5 E 1029,1 32 60 0,0
21.08.2019 10:00:00 16,5 10,4 19,8 17,5 15,8 18,2 4 2 6 4 E 1029,2 23 60 0,0
21.08.2019 09:00:00 14,6 10,8 15,0 14,4 15,8 18,2 3 2 8 5 WNW 1029,2 27 39 0,0
21.08.2019 08:00:00 11,6 10,7 11,2 12,6 16,0 18,2 0 0 6 3 N 1029,2 18 10 0,0
21.08.2019 07:00:00 9,7 9,1 8,2 12,0 16,3 18,2 3 2 5 3 E 1029,0 13 0 0,0
21.08.2019 06:00:00 9,2 8,6 7,5 12,3 16,6 18,2 5 3 6 3 ESE 1028,4 15 0 0,0
21.08.2019 05:00:00 9,9 9,3 6,7 12,7 16,9 18,2 2 1 6 3 ESE 1028,3 13 0 0,0
21.08.2019 04:00:00 10,1 9,5 7,2 13,2 17,2 18,2 4 2 5 3 SSW 1028,1 16 0 0,0
21.08.2019 03:00:00 11,1 9,9 8,4 13,9 17,5 18,2 0 0 8 4 N 1027,8 20 0 0,0
21.08.2019 02:00:00 11,8 10,0 9,1 14,3 17,8 18,2 4 2 7 4 WSW 1027,6 36 0 0,0
21.08.2019 01:00:00 11,7 9,7 9,8 14,6 18,1 18,3 3 2 4 2 WSW 1027,3 34 0 0,0
21.08.2019 00:00:00 12,1 9,6 9,1 15,3 18,5 18,3 3 2 6 3 SSE 1026,8 31 0 0,0
20.08.2019 23:00:00 14,6 9,7 10,4 16,1 18,8 18,3 4 2 11 6 NNW 1026,4 47 0 0,0
20.08.2019 22:00:00 16,4 8,7 13,4 17,0 19,1 18,3 7 4 12 6 WNW 1025,6 52 0 0,0
20.08.2019 21:00:00 17,0 8,0 13,4 18,3 19,2 18,3 5 3 19 10 W 1025,1 35 10 0,0
20.08.2019 20:00:00 19,8 7,4 18,7 19,9 19,3 18,3 9 5 21 11 W 1024,1 57 60 0,0
20.08.2019 19:00:00 21,0 7,7 21,4 21,0 19,2 18,3 6 3 16 8 WSW 1023,8 61 43 0,0
20.08.2019 18:00:00 20,3 7,8 20,5 21,4 19,0 18,3 9 5 21 12 W 1023,6 58 12 0,0
20.08.2019 17:00:00 20,7 8,3 21,5 21,9 18,7 18,3 6 3 24 13 W 1023,5 66 29 0,0
20.08.2019 16:00:00 20,4 8,8 22,2 21,7 18,4 18,3 6 4 18 10 W 1023,3 70 13 0,0
20.08.2019 15:00:00 19,7 8,9 21,3 22,0 18,0 18,3 6 4 20 11 NW 1023,2 66 34 0,0
20.08.2019 14:00:00 19,5 8,0 22,2 21,4 17,5 18,3 6 3 16 8 W 1023,2 64 45 0,0
20.08.2019 13:00:00 19,0 8,8 20,6 20,1 17,2 18,3 5 3 16 8 WSW 1023,5 57 6 0,0
20.08.2019 12:00:00 17,9 8,6 19,0 19,1 16,8 18,3 5 3 12 6 WSW 1023,3 51 0 0,0
20.08.2019 11:00:00 17,2 8,7 18,1 18,2 16,5 18,3 5 3 12 7 WSW 1023,3 51 48 0,0
20.08.2019 10:00:00 16,6 8,9 17,7 16,9 16,3 18,3 4 2 14 7 SSW 1023,0 52 60 0,0
20.08.2019 09:00:00 15,2 8,7 16,4 14,7 16,3 18,3 8 5 12 6 S 1022,9 38 57 0,0
20.08.2019 08:00:00 12,8 9,7 10,5 12,7 16,6 18,3 3 2 7 4 S 1022,7 48 51 0,0
20.08.2019 07:00:00 11,8 9,1 8,9 12,5 16,9 18,3 5 3 8 5 SW 1022,3 49 0 0,0
20.08.2019 06:00:00 10,4 9,1 7,4 12,9 17,2 18,3 5 3 7 4 SSW 1021,9 36 0 0,0
20.08.2019 05:00:00 11,2 9,3 7,8 13,4 17,4 18,3 2 1 7 4 SW 1021,8 40 0 0,0
20.08.2019 04:00:00 12,8 9,8 9,8 14,0 17,7 18,3 5 3 8 4 SSW 1021,5 52 0 0,0
20.08.2019 03:00:00 13,2 10,0 11,1 14,7 18,0 18,3 4 2 11 6 SSW 1021,4 51 0 0,0
20.08.2019 02:00:00 14,7 10,1 12,3 15,0 18,3 18,4 4 2 14 7 SW 1021,0 56 0 0,0
20.08.2019 01:00:00 14,3 9,8 11,9 15,1 18,6 18,4 5 3 14 7 SSW 1020,9 56 0 0,0
20.08.2019 00:00:00 15,4 9,9 12,7 15,7 18,9 18,4 9 5 16 9 SSW 1020,4 63 0 0,0
19.08.2019 23:00:00 14,7 10,1 11,2 16,4 19,3 18,4 9 5 11 6 SSW 1019,9 61 0 0,0
19.08.2019 22:00:00 16,7 9,3 12,5 17,3 19,6 18,4 4 2 10 5 SW 1019,3 69 0 0,0
19.08.2019 21:00:00 19,0 8,7 16,7 18,4 19,8 18,4 5 3 15 8 SW 1018,5 65 15 0,0
19.08.2019 20:00:00 20,1 8,3 18,7 19,7 19,9 18,4 6 3 22 12 SW 1018,0 70 12 0,0
19.08.2019 19:00:00 21,2 8,2 20,8 21,0 19,9 18,4 6 4 17 9 SW 1017,9 70 9 0,0
19.08.2019 18:00:00 21,2 8,6 21,4 21,9 19,8 18,4 11 6 27 15 W 1017,7 70 40 0,0
19.08.2019 17:00:00 21,6 7,2 22,5 22,3 19,7 18,4 11 6 25 13 W 1017,4 66 31 0,0
19.08.2019 16:00:00 21,3 8,0 21,9 21,9 19,5 18,4 9 5 23 13 WNW 1017,5 70 11 0,0
19.08.2019 15:00:00 22,3 7,6 24,0 22,3 19,1 18,4 10 5 24 13 SW 1017,3 63 23 0,0
19.08.2019 14:00:00 20,8 7,7 21,6 23,9 18,6 18,4 13 7 28 15 W 1017,2 64 49 0,0
19.08.2019 13:00:00 20,9 8,3 24,3 23,5 18,0 18,4 10 6 30 16 W 1016,9 29 60 0,0
19.08.2019 12:00:00 19,8 9,7 23,1 22,0 17,5 18,4 8 4 26 14 W 1016,8 37 60 0,0
19.08.2019 11:00:00 18,8 9,2 20,7 20,0 17,1 18,4 10 6 27 15 W 1016,6 39 60 0,0
19.08.2019 10:00:00 17,9 9,8 19,7 17,7 16,9 18,4 8 5 23 12 WSW 1016,3 49 60 0,0
19.08.2019 09:00:00 16,5 10,7 16,7 15,4 17,0 18,4 8 5 20 11 SW 1016,2 41 60 0,0
19.08.2019 08:00:00 13,9 12,4 12,4 13,7 17,2 18,4 8 5 19 11 SSW 1015,9 32 56 0,0

tt = temperature
td = dewpoint
tt 5cm = temperature 5cm
tt -5cm = temperature -5cm
tt -20cm = temperature -20cm
tt -100cm = temperature -100cm
ff = wind speed
fx = gusts
dd = wind direction
ppp = reduced air pressure
vv = visibility
sd = sunshine duration
rr = precipitation

Next stations